Regional Weather Roundup
Issued by NWS

Home | Current Version | Previous Version | Graphics & Text | Print | Product List | Glossary On
Versions: 1 2 3 4 5 6 7 8 9 10 11 12 13 14 15 16 17 18 19 20 21 22 23 24 25 26 27 28 29 30 31 32 33 34 35 36 37 38 39 40 41 42 43 44 45 46 47 48 49 50
442
ASUS43 KMKX 241511
RWRWI

WISCONSIN REGIONAL WEATHER ROUNDUP
NATIONAL WEATHER SERVICE MILWAUKEE/SULLIVAN WI
1000 AM CDT MON JUL 24 2017

NOTE: "FAIR" INDICATES FEW OR NO CLOUDS BELOW 12,000 FEET WITH NO
SIGNIFICANT WEATHER AND/OR OBSTRUCTIONS TO VISIBILITY.

WIZ001-002-006>008-014>016-023>028-241600-
NORTHWEST WISCONSIN

CITY           SKY/WX    TMP DP  RH WIND       PRES   REMARKS
SUPERIOR ARPT  NOT AVBL
ASHLAND        SUNNY     61  57  87 CALM      30.12S
HAYWARD        SUNNY     65  55  70 E6        30.11S
SIREN          MOSUNNY   59  59  97 CALM      30.10F
CUMBERLAND     MOSUNNY   61  54  77 SE7       30.11S
RICE LAKE      CLOUDY    60  55  83 E5        30.13S
CHETEK         CLOUDY    59  55  87 SE5       30.12S
LADYSMITH      CLOUDY    58  53  85 E7        30.14F
EAU CLAIRE     CLOUDY    60  54  80 E7        30.10R
MENOMONIE      CLOUDY    65  58  77 E6        30.10S
NEW RICHMOND   SUNNY     67  56  67 SE5       30.09F
OSCEOLA        MOSUNNY   68  58  71 S3        30.12S
$$

WIZ003>005-009-010-017-018-241600-
NORTH CENTRAL WISCONSIN

CITY           SKY/WX    TMP DP  RH WIND       PRES   REMARKS
MANITOWISH WTR SUNNY     65  52  63 SE6       30.13S
ARBOR VITAE    SUNNY     65  52  63 S3        30.12S
WOODRUFF       SUNNY     65  52  63 S3        30.12S
RHINELANDER    SUNNY     61  53  75 VRB5      30.13S
EAGLE RIVER    SUNNY     65  48  54 SE6       30.12S
LAND O LAKES   SUNNY     66  50  55 E3        30.13F
PHILLIPS       SUNNY     61  55  80 S5        30.12S
TOMAHAWK         N/A     61  53  73 NE3       30.13S
MEDFORD        PTSUNNY   60  53  76 E3        30.11S
MERRILL        NOT AVBL
$$

WIZ029-030-035-036-043>047-241600-
CENTRAL WISCONSIN

CITY           SKY/WX    TMP DP  RH WIND       PRES   REMARKS
WAUSAU         SUNNY     64  53  67 VRB6      30.09F
MOSINEE        MOSUNNY   64  55  72 NE5       30.11F
MARSHFIELD     PTSUNNY   64  53  67 SE6       30.09S
STEVENS POINT  PTSUNNY   64  54  69 E7        30.10F
WAUPACA        MOSUNNY   69  55  62 NE3       30.10S
WAUTOMA        PTSUNNY   66  57  72 NE8       30.09S
WISC RAPIDS    CLOUDY    66  55  67 SE8       30.10S
CAMP DOUGLAS   CLOUDY    64  57  77 SE6       30.08F
$$

WIZ011>013-019>022-031-037>040-048>050-241600-
NORTHEAST WISCONSIN

CITY           SKY/WX    TMP DP  RH WIND       PRES   REMARKS
ANTIGO         SUNNY     62  54  73 CALM      30.12S
SHAWANO        SUNNY     67  55  64 E5        30.09F
OCONTO         SUNNY     65  53  64 N6        30.09S
STURGEON BAY     N/A     65  58  78 N15       30.09R
GREEN BAY      MOSUNNY   67  59  75 NE12      30.09S
MANITOWOC      MOSUNNY   66  56  70 NE12      30.07S
APPLETON       PTSUNNY   66  52  59 NE10G16   30.07S
CLINTONVILLE   PTSUNNY  N/A N/A N/A N7        30.09S
OSHKOSH        MOSUNNY   66  57  72 NE13      30.07S
$$

WIZ032>034-041-042-053>061-241600-
SOUTHWEST WISCONSIN

CITY           SKY/WX    TMP DP  RH WIND       PRES   REMARKS
LA CROSSE      CLOUDY    65  57  75 VRB5      30.08F
SPARTA         CLOUDY    64  55  74 NE6       30.10R
VIROQUA        CLOUDY    61  58  89 CALM      30.09F
BOSCOBEL       MOSUNNY   69  57  65 NE7       30.07F
PRAIRIE DU CHI CLOUDY    66  56  69 CALM      30.07S
PLATTEVILLE    MOSUNNY   67  61  81 NE8       30.07S
$$

WIZ056-057-062-063-064-067-068-241600-
SOUTH CENTRAL WISCONSIN

CITY           SKY/WX    TMP DP  RH WIND       PRES   REMARKS
REEDSBURG      CLOUDY    64  58  80 NE6       30.08S
BARABOO/DELLS  CLOUDY    64  55  72 NE6       30.08S
LONE ROCK      CLOUDY    67  57  70 E7        30.07S
MINERAL POINT  PTSUNNY   66  61  82 NE9       30.07S
MADISON        CLOUDY    65  57  75 NE9       30.06S
MIDDLETON      CLOUDY    66  58  74 E6        30.08R
WATERTOWN      CLOUDY    66  58  76 NE9       30.06R
MONROE         PTSUNNY   66  55  68 NE10      30.06R
JANESVILLE     PTSUNNY   70  57  64 NE12G17   30.05R
$$

WIZ051-052-058>065-066-070>072-241600-
SOUTHEAST WISCONSIN

CITY           SKY/WX    TMP DP  RH WIND       PRES   REMARKS
MILWAUKEE      PTSUNNY   69  58  67 N15G22    30.04R
WAUKESHA       MOSUNNY   64  55  72 NE9G16    30.06R
MILWAUKEE/TIMM PTSUNNY   66  52  59 N12G23    30.06R
RACINE         MOSUNNY   69  59  70 NE16      30.05S
KENOSHA        CLOUDY    68  57  68 NE12      30.04R
FOND DU LAC    MOSUNNY   67  54  63 NE12      30.07S
SHEBOYGAN      CLOUDY    67  59  75 NE12      30.07R
WEST BEND      CLOUDY    64  55  72 NE13      30.06S
JUNEAU           N/A     65  56  70 NE7       30.07S
$$

LSZ147-162-241600-
LAKE SUPERIOR

STATION/POSITION TIME  TEMP    WIND        PRES    WAVE
                       AIR SEA DIR/SP/G            HT/PER
                 (UTC) (F)     (DEG/KT/KT) (MB)    (FT/S)
W MID LAKE BUOY  1350   49 48  240/  6/  8 1020.1R   0
DEVILS ISLAND    1500   57     240/  1/  2 1019.8F
PORT WING        1420   56     340/  2/  4   N/A
SAXON HARBOR     1440   58     340/  4/  6 1019.6R
$$

LMZ867-665-643>646-241600-
LAKE MICHIGAN

STATION/POSITION TIME  TEMP    WIND        PRES    WAVE
                       AIR SEA DIR/SP/G            HT/PER
                 (UTC) (F)     (DEG/KT/KT) (MB)    (FT/S)
CHAMBERS ISLAND  1440   64      10/ 10/ 13 1018.3S
S GREEN BAY BUOY 1500   63 72   30/ 14/ 16 1018.4
N MID LAKE BUOY  1450   63 66   10/ 17/ 21 1018.2S   3/ 4
NORTHPORT PIER   1440   63     340/ 11/ 13 1018.6R
KEWAUNEE LAKESHO 1448   65      30/  9/ 15 1017.6R
SHEBOYGAN LAKESH 1500   64      20/ 20/ 23 1017.7R
PORT WASHINGTON  1440   68      40/ 14/ 19 1018.6R
ATWATER BUOY     1309   66 68   40/ 19/ 23 1016.9R
MILWAUKEE LAKESH 1450   65      30/ 19/ 22   N/A
S MID LAKE BUOY  1350   66 70   20/ 17/ 21 1015.9R   4/ 7
KENOSHA   LAKESH 1500   66      30/ 15/ 20 1016.9
$$

TC  - TEMPERATURE IN CELSIUS
VSB - VISIBILITY IN STATUTE MILES
WCI - WIND CHILL INDEX
HX  - HEAT INDEX





USA.gov is the U.S. government's official web portal to all federal, state and local government web resources and services.